Peru, IN

2:10 AM EST on January 23, 2018 (GMT -0500)
Grissom Air Reserve Base

Weather History for KGUS - May, 2013

Change the Weather History Date:

Saturday, May 11, 2013

  Actual Average Record
Temperature  
Mean Temperature 52 °F -  
Max Temperature 62 °F 68 °F 88 °F (2011)
Min Temperature 40 °F 51 °F 40 °F (2013)
Degree Days  
Heating Degree Days 12    
Growing Degree Days 2 (Base 50)    
Moisture  
Dew Point 45 °F    
Average Humidity 89    
Maximum Humidity 100    
Minimum Humidity 65    
Precipitation  
Precipitation 0.00 in - - ()
Sea Level Pressure  
Sea Level Pressure 29.92 in    
Wind  
Wind Speed 11 mph (WNW)    
Max Wind Speed 26 mph    
Max Gust Speed 40 mph    
Visibility 9 miles    
Events      
Averages and records for this station are not official NWS values.
T = Trace of Precipitation, MM = Missing Value Source: NWS Daily Summary

Daily Weather History Graph

Daily Weather History Graph

Search for Another Location

Airport or City:

Trip Planner

Search our weather history database for the weather conditions in past years. The results will help you decide how hot, cold, wet, or windy it might be!

Date:

Astronomy

May. 11, 2013 Rise Set
Actual Time 6:31 AM EDT 8:51 PM EDT
Civil Twilight 6:00 AM EDT 9:21 PM EDT
Nautical Twilight 5:22 AM EDT 9:59 PM EDT
Astronomical Twilight 4:41 AM EDT 10:41 PM EDT
Moon 7:38 AM EDT (5/11) 10:31 PM EDT (5/11)
Length of Visible Light 15h 21m
Length of Day
14h 19m
Waxing Crescent, 3% of the Moon is Illuminated
May 11
Waxing Crescent
May 18
First Quarter
May 25
Full
May 31
Last Quarter
Jun 8
New

Hourly Weather History & Observations

Time (EDT) Temp. Windchill Dew Point Humidity Pressure Visibility Wind Dir Wind Speed Gust Speed Precip Events Conditions
12:08 AM 46.4 °F 41.9 °F 44.6 °F 93% 29.92 in 10.0 mi NW 9.2 mph - N/A   Overcast
12:23 AM 46.4 °F 40.7 °F 44.6 °F 93% 29.92 in 10.0 mi WNW 12.7 mph - N/A   Overcast
12:33 AM 44.6 °F 39.2 °F 44.6 °F 100% 29.92 in 10.0 mi NW 10.4 mph - N/A   Overcast
12:43 AM 44.6 °F 40.2 °F 44.6 °F 100% 29.92 in 10.0 mi NW 8.1 mph - N/A   Overcast
12:58 AM 45.0 °F 39.7 °F 43.7 °F 95% 29.93 in 10.0 mi NW 10.4 mph - N/A   Overcast
1:13 AM 44.6 °F 39.7 °F 44.6 °F 100% 29.93 in 10.0 mi NW 9.2 mph - N/A   Overcast
1:58 AM 44.4 °F 40.5 °F 43.9 °F 98% 29.94 in 10.0 mi WNW 6.9 mph - N/A   Overcast
2:13 AM 44.6 °F 39.7 °F 44.6 °F 100% 29.93 in 10.0 mi NW 9.2 mph - N/A   Overcast
2:48 AM 44.6 °F 39.7 °F 44.6 °F 100% 29.93 in 10.0 mi NW 9.2 mph - N/A   Overcast
2:58 AM 44.4 °F 39.0 °F 43.9 °F 98% 29.94 in 10.0 mi WNW 10.4 mph - N/A   Overcast
3:58 AM 44.4 °F 39.0 °F 43.9 °F 98% 29.95 in 10.0 mi WNW 10.4 mph - N/A   Overcast
4:13 AM 44.6 °F 39.2 °F 44.6 °F 100% 29.94 in 10.0 mi WNW 10.4 mph - N/A   Overcast
4:33 AM 44.6 °F 38.8 °F 44.6 °F 100% 29.94 in 9.0 mi WNW 11.5 mph - N/A   Overcast
4:58 AM 44.1 °F 38.6 °F 44.1 °F 100% 29.94 in 7.0 mi WNW 10.4 mph - N/A   Overcast
5:03 AM 44.6 °F 38.4 °F 44.6 °F 100% 29.93 in 6.0 mi WNW 12.7 mph - N/A   Overcast
5:23 AM 44.6 °F 39.7 °F 44.6 °F 100% 29.93 in 8.0 mi WNW 9.2 mph - N/A   Overcast
5:43 AM 44.6 °F 39.2 °F 44.6 °F 100% 29.93 in 9.0 mi NW 10.4 mph - N/A   Overcast
5:58 AM 43.9 °F 37.9 °F 43.9 °F 100% 29.95 in 7.0 mi NW 11.5 mph - N/A   Overcast
6:03 AM 44.6 °F 39.2 °F 44.6 °F 100% 29.93 in 7.0 mi NW 10.4 mph - N/A   Overcast
6:33 AM 44.6 °F 39.7 °F 44.6 °F 100% 29.92 in 9.0 mi NW 9.2 mph - N/A   Overcast
6:58 AM 44.1 °F 38.6 °F 44.1 °F 100% 29.94 in 4.0 mi NW 10.4 mph - N/A   Overcast
7:13 AM 44.6 °F 39.2 °F 44.6 °F 100% 29.93 in 4.0 mi NW 10.4 mph - N/A   Overcast
7:23 AM 44.6 °F 40.7 °F 44.6 °F 100% 29.93 in 4.0 mi NW 6.9 mph - N/A   Overcast
7:58 AM 44.6 °F 40.2 °F 43.7 °F 97% 29.94 in 6.0 mi NNW 8.1 mph - N/A   Overcast
8:18 AM 44.6 °F 40.7 °F 44.6 °F 100% 29.92 in 6.0 mi NW 6.9 mph - N/A   Overcast
8:55 AM 44.6 °F 39.7 °F 42.8 °F 93% 29.93 in 7.0 mi NW 9.2 mph - N/A   Overcast
8:58 AM 44.8 °F 41.0 °F 43.5 °F 95% 29.95 in 7.0 mi NW 6.9 mph - N/A   Overcast
9:06 AM 44.6 °F 39.7 °F 44.6 °F 100% 29.93 in 7.0 mi WNW 9.2 mph - N/A   Overcast
9:31 AM 44.6 °F 40.7 °F 44.6 °F 100% 29.93 in 7.0 mi WNW 6.9 mph - N/A   Overcast
9:58 AM 45.0 °F 40.1 °F 43.9 °F 96% 29.95 in 7.0 mi West 9.2 mph - N/A   Overcast
10:29 AM 44.6 °F 40.2 °F 44.6 °F 100% 29.94 in 7.0 mi WNW 8.1 mph - N/A   Overcast
10:33 AM 44.6 °F 40.7 °F 42.8 °F 93% 29.93 in 7.0 mi West 6.9 mph - N/A   Overcast
10:58 AM 46.6 °F - 44.6 °F 93% 29.95 in 10.0 mi West 9.2 mph - N/A   Overcast
11:13 AM 46.4 °F 40.7 °F 44.6 °F 93% 29.93 in 10.0 mi West 12.7 mph - N/A   Overcast
11:58 AM 48.7 °F - 46.0 °F 90% 29.94 in 10.0 mi West 9.2 mph - N/A   Overcast
12:13 PM 50.0 °F - 46.4 °F 87% 29.92 in 10.0 mi West 13.8 mph - N/A   Overcast
12:58 PM 51.1 °F - 47.1 °F 86% 29.92 in 10.0 mi WSW 12.7 mph - N/A   Overcast
1:53 PM 53.6 °F - 48.2 °F 82% 29.89 in 10.0 mi WSW 13.8 mph - N/A   Overcast
1:58 PM 54.5 °F - 48.6 °F 80% 29.91 in 10.0 mi SW 15.0 mph - N/A   Overcast
2:23 PM 57.2 °F - 50.0 °F 77% 29.88 in 10.0 mi SW 12.7 mph - N/A   Mostly Cloudy
2:58 PM 56.8 °F - 49.8 °F 77% 29.88 in 10.0 mi WSW 16.1 mph - N/A   Mostly Cloudy
3:16 PM 55.4 °F - 50.0 °F 82% 29.87 in 10.0 mi WSW 12.7 mph - N/A   Light Drizzle
3:28 PM 55.4 °F - 51.8 °F 88% 29.87 in 10.0 mi WSW 12.7 mph - N/A   Overcast
3:58 PM 58.1 °F - 51.6 °F 79% 29.88 in 10.0 mi WSW 16.1 mph 20.7 mph 0.00 in   Mostly Cloudy
4:03 PM 59.0 °F - 51.8 °F 77% 29.85 in 10.0 mi SW 20.7 mph 21.9 mph N/A   Scattered Clouds
4:08 PM 60.8 °F - 51.8 °F 72% 29.86 in 10.0 mi WSW 15.0 mph 21.9 mph N/A   Mostly Cloudy
4:18 PM 59.0 °F - 51.8 °F 77% 29.85 in 10.0 mi WSW 15.0 mph - N/A   Mostly Cloudy
4:58 PM 62.4 °F - 52.3 °F 70% 29.84 in 10.0 mi WSW 20.7 mph 27.6 mph N/A   Mostly Cloudy
5:13 PM 62.6 °F - 51.8 °F 68% 29.82 in 10.0 mi West 19.6 mph 26.5 mph N/A   Mostly Cloudy
5:14 PM 62.6 °F - 51.8 °F 68% 29.84 in 10.0 mi NNW 26.5 mph 32.2 mph N/A   Mostly Cloudy
5:26 PM 53.6 °F - 46.4 °F 77% 29.86 in 10.0 mi North 26.5 mph 40.3 mph N/A   Mostly Cloudy
5:58 PM 52.2 °F - 44.4 °F 75% 29.90 in 10.0 mi North 23.0 mph 31.1 mph N/A   Partly Cloudy
6:58 PM 51.8 °F - 41.0 °F 67% 29.93 in 10.0 mi North 11.5 mph 24.2 mph N/A   Clear
7:58 PM 50.4 °F - 38.8 °F 65% 29.96 in 10.0 mi North 11.5 mph - N/A   Clear
8:58 PM 48.0 °F - 39.0 °F 71% 29.99 in 10.0 mi North 6.9 mph - N/A   Mostly Cloudy
9:58 PM 46.0 °F 44.8 °F 36.9 °F 70% 30.00 in 10.0 mi NNW 3.5 mph - N/A   Overcast
10:58 PM 45.3 °F 42.3 °F 34.0 °F 65% 30.03 in 10.0 mi NNW 5.8 mph - N/A   Scattered Clouds
11:58 PM 40.8 °F 37.8 °F 36.0 °F 83% 30.04 in 10.0 mi West 4.6 mph - N/A   Clear